Regional Weather Roundup
Issued by NWS Upton, NY

Current Version | Previous Version | Text Only | Print | Product List | Glossary Off
Versions: 1 2 3 4 5 6 7 8 9 10 11 12 13 14 15 16 17 18 19 20 21 22 23 24 25 26 27 28 29 30 31 32 33 34 35 36 37 38 39 40 41 42 43 44 45 46 47 48 49 50

000
ASUS41 KOKX 260307
RWROKX

REGIONAL WEATHER ROUNDUP
NATIONAL WEATHER SERVICE NEW YORK NY
1100 PM EDT SAT APR 25 2015

NOTE: "FAIR" INDICATES FEW OR NO CLOUDS BELOW 12,000 FEET WITH NO
SIGNIFICANT WEATHER AND/OR OBSTRUCTIONS TO VISIBILITY.

NYZ071-072-176-178-NJZ106-104-260400-
NEW YORK CITY METRO AREA


CITY           SKY/WX    TMP DP  RH WIND       PRES   REMARKS
CENTRAL PARK   PTCLDY    52  29  41 NE8G16    29.72S
LAGUARDIA APRT MOCLDY    49  36  61 NE8       29.70S
KENNEDY INTL   MOCLDY    46  38  73 NE8       29.71S
NEWARK/LIBERTY MOCLDY    52  27  38 N16       29.69F
BRNX BOT. GARD   N/A     48  32  53 N3        29.72R
TETERBORO      PTCLDY    52  25  35 NE9       29.69S
$$

NYZ177-179-078>081-260400-
LONG ISLAND NEW YORK

CITY           SKY/WX    TMP DP  RH WIND       PRES   REMARKS
FARMINGDALE    PTCLDY    43  36  76 NE5       29.71S
ISLIP          MOCLDY    41  34  76 CALM      29.70S
SHIRLEY        PTCLDY    39  33  79 CALM      29.72F
WESTHAMPTON    PTCLDY    32  26  78 CALM      29.72F
MONTAUK POINT    N/A     46  35  65 CALM      29.71F
$$

NYZ052-065-067-260400-
HUDSON VALLEY

CITY           SKY/WX    TMP DP  RH WIND       PRES   REMARKS
WHITE PLAINS   CLEAR     48  25  40 N5        29.70S
NEWBURGH       CLEAR     45  28  53 VRB6      29.73S
MONTGOMERY     CLEAR     41  30  65 CALM      29.72S
POUGHKEEPSIE   CLEAR     42  28  57 CALM      29.72S
ALBANY         MOCLDY    45  27  49 NW7       29.76R
$$

NJZ001-105-106-008-010-013-015-019>022-104-260400-
NEW JERSEY

CITY           SKY/WX    TMP DP  RH WIND       PRES   REMARKS
NEWARK/LIBERTY MOCLDY    52  27  38 N16       29.69F
TETERBORO      PTCLDY    52  25  35 NE9       29.69S
CALDWELL       MOCLDY    50  25  37 NE7       29.71S
MORRISTOWN     MOCLDY    48  28  46 NE6       29.70S
SOMERVILLE     MOCLDY    44  33  65 CALM      29.68F
SUSSEX         PTCLDY    41  28  60 CALM      29.73S
ANDOVER          N/A     44  32  62 N3        29.71S
TRENTON        CLOUDY    49  28  44 W5        29.69F
MILLVILLE      CLOUDY    46  36  68 W5        29.72S
ATLANTIC CITY  CLOUDY    47  33  58 S3        29.72F
WRIGHTSTOWN    NOT AVBL
TOMS RIVER     CLOUDY    45  28  53 CALM      29.69F
BELMAR         MOCLDY    48  25  40 SW5       29.69F
$$

PAZ047>061-062-071-260400-
EASTERN PENNSYLVANIA

CITY           SKY/WX    TMP DP  RH WIND       PRES   REMARKS
PHILADELPHIA   CLOUDY    50  34  54 SW8       29.72S
ALLENTOWN      CLOUDY    46  26  45 CALM      29.70S
SCRANTON       PTCLDY    45  26  47 NE3       29.72F
$$

CTZ002-004>006-009-010-012-RIZ004-006-007-MAZ004-011-015-260400-
SOUTHERN NEW ENGLAND
 IN CT

CITY           SKY/WX    TMP DP  RH WIND       PRES   REMARKS
BRADLEY INTL   CLOUDY    49  28  44 N7        29.71S
HARTFORD       CLOUDY    51  26  37 VRB7      29.71F
DANBURY        CLEAR     40  28  62 CALM      29.72F
WTRBRY/OXFORD  CLEAR     39  23  52 N6        29.72F WCI  35
BRIDGEPORT     CLEAR     45  37  73 CALM      29.71F
MERIDEN        CLEAR     44  32  62 CALM      29.71F
NEW HAVEN      FAIR      42  34  73 CALM      29.71F
CHESTER        FAIR      48  28  46 N5        29.71S
GROTON         PTCLDY    46  34  62 CALM      29.70F
WILLIMANTIC    CLOUDY    44  33  65 CALM      29.72S

 IN RI

CITY           SKY/WX    TMP DP  RH WIND       PRES   REMARKS
PROVIDENCE     MOCLDY    48  30  49 NE7       29.72S
BLOCK ISLAND   CLOUDY    45  36  70 W9        29.70S
WESTERLY       MOCLDY    45  37  73 CALM      29.71S

 IN MA

CITY           SKY/WX    TMP DP  RH WIND       PRES   REMARKS
BOSTON         PTCLDY    45  28  51 N12       29.73S
WORCESTER      CLOUDY    45  27  49 N5        29.71S
WESTFIELD      PTCLDY    47  27  45 N6        29.72S
PROVINCETOWN   PTCLDY   N/A N/A N/A NW6       29.72S
NANTUCKET      CLOUDY    43  35  73 NW5       29.71F
$$

ANZ330-335-338-340-345-350-353-355-260400-
COASTAL MARINE OBSERVATIONS


STATION/POSITION TIME  SKY/WX   TEMP    WIND        PRES    VSBY  WAVE
                                AIR SEA DIR/SP/G                  HT/PER
                 (UTC)          (F)     (DEG/KT/KT) (MB)    (MI)  (FT/S)
NY HARB ENTRANCE 0250            47 45  190/  8/  8 1005.0          2/ 4
4S FIRE IS       0203               44                N/A           2/ 4
20S FIRE ISLAND  0250            45 43  210/ 12/ 14 1005.8          2/ 5
23SW MTP         NOT AVBL
HUDSON CANYON    NOT AVBL
EXECUTION ROCKS  NOT AVBL
WESTERN LI SOUND NOT AVBL
CENTRAL LI SOUND NOT AVBL
EASTERN LI SOUND 0200            45     270/ 10/ 12   N/A
ROBBINS REEF     0206            52      90/  4/  5 1004.2
$$


>>>>>>>>>>>>>>>>>>>>>>>>>>>> KEY <<<<<<<<<<<<<<<<<<<<<<<<<<<
>                                                          <
>     SKY/WX - SKY CONDITION/PRESENT WEATHER               <
>     TMP    - TEMPERATURE IN FAHRENHEIT                   <
>     DP     - DEWPOINT IN FAHRENHEIT                      <
>     RH     - RELATIVE HUMIDITY IN PERCENT                <
>     WIND   - DIRECTION AND SPEED IN MPH                  <
>     PRES   - MEAN SEA LEVEL PRESSURE IN INCHES OF HG     <
>     WCI    - WIND CHILL INDEX                            <
>     VSB    - VISIBILITY IN MILES                         <
>     HX     - HEAT INDEX                                  <
>     TC     - TEMPERATURE IN CELSIUS                      <
>     VRB    - VARIABLE WIND DIRECTION                     <
>                                                          <
>>>>>>>>>>>>>>>>>>>>>>>>>>>> KEY <<<<<<<<<<<<<<<<<<<<<<<<<<<




USA.gov is the U.S. government's official web portal to all federal, state and local government web resources and services.